Погода в Барабинске

Погода в Барабинске : погода сейчас, прогноз погоды и архив. Всё, что Вы хотите узнать о погоде в Барабинске!

Хотите узнать прогноз погоды в Барабинске? Тогда Вам сюда: Погода в Барабинске

Поиск расширенной информации на нашем сайте:

Другие новости

Новости СМИ2

Главная страница сайта

Новости сайта

03.07.2017

Напоминаем, что на нашем специализированном сайте Метеоцентр.Азия вы можете получить высокодетализированные автоматические прогнозы погоды по пунктам России, СНГ и мира в авиационном формате (включающие направление и скорость ветра, видимость, явления погоды, количество и форму облачности, нижнюю и верхнюю границу облачности).

Рекомендуем: Для клиентов Вешняков Компьютерная скорая помощь в тушино по филям.

Погода в Барабинске - сегодня

Время (UTC), дата Ветер
(°,м/с) 
Видим.   Явления Облачность Т
(°С)
Тd
(°С)
f(%) Тe
(°С)
Pmin
(гПа)
dP
(гПа)
Po
(мм)
O2
(г/м3)
Тmin Tmax R s Состояние
почвы
09 20.07.17 240 (ЮЗ) 1{13}  10 км  гроза, ливневой дождь  10/10 600 м кучево-дожд. 
[Cb calv]
+14.1 +12.4 89 +20  1011  1.2  748  284           
12 20.07.17 270 (З) 20000 м  {гроза, ливн. осадки}  9/0 средняя, верхняя 
[As op|Ci fib]
+20 +14.6 71 +28  1010.1  -0.7  747  277    +21.6  13     
15 20.07.17 260 (З) 20000 м    8/6 600 м кучево-дожд., средняя 
[Cb calv|Ac trans]
+16.9 +14.3 85 +26  1010.9  0.7  748  281           
18 20.07.17 310 (СЗ) 20000 м    6/3 600 м кучево-дожд., средняя 
[Cb calv|Ac trans]
+13.5 +12 91 +19  1011.4  0.3  748  285           
21 20.07.17 тихо ()   20000 м    9/6 600 м кучево-дожд., средняя 
[Cb calv|Ac trans]
+13.5 +13 97 +19  1011.5  0.1  748  285           
00 21.07.17 тихо ()   20000 м    9/4 600 м кучево-дожд., средняя 
[Cb calv|Ac trans]
+13.7 +12.9 95 +19  1012.1  0.6  748  285  +12.9        мокрая 
03 21.07.17 150 (ЮВ) 20000 м    6/0 средняя 
[Ac trans]
+19.9 +14.6 72 +29  1012.3  0.6  749  278           
06 21.07.17 120 (ЮВ) 20000 м    6/6 600 м 
[Cu med, cong]
+22.9 +13.4 55 +29  1012.2  749  276           
09 21.07.17 300 (СЗ) 20000 м    8/8 300 м 
[Cu med, cong]
+24.8 +11.4 43 +28  1010.9  -1.2  748  274           
12 21.07.17 020 (С) 20000 м    9/9 300 м кучево-дожд. 
[Cb calv]
+21.6 +13.3 59 +28  1011.6  0.5  748  277    +25.3       
15 21.07.17 350 (С) 20000 м    8/8 600 м 
[Sc]
+17.6 +14 79 +26  1012.2  0.4  749  281           
18 21.07.17 320 (СЗ) 20000 м    ясно 
+12.8 +11.2 90 +17  1012.3  -0.1  749  286           
21 21.07.17 тихо ()   20000 м    ясно 
+11.6 +10.9 95 +14  1012.1  -0.3  748  287           
00 22.07.17 260 (З) 4000 м  в посл. час туман  3/0 верхняя 
[Ci fib]
+13 +13 100 +19  1012.4  0.3  749  285  +10.1        влажная 
03 22.07.17 310 (СЗ) 20000 м    8/0 средняя 
[Ac trans]
+19.8 +14.5 71 +29  1012.4  0.4  749  278           
06 22.07.17 340 (С) 20000 м    9/9 600 м кучево-дожд. 
[Cb calv]
+23.3 +14.3 57 +31  1011.7  -0.5  748  275           
09 22.07.17 360 (С) 20000 м    8/0 кучево-дожд., верхняя 
[Cb calv|Ci fib]
+24 +12.6 49 +29  1011.3  -0.4  748  275           
12 22.07.17 350 (С) 20000 м    8/4 600 м верхняя 
[Cu med, cong|Ci]
+24.1 +13.6 52 +31  1011  -0.3  748  274    +24.7       
15 22.07.17 тихо ()   20000 м    6/3 600 м верхняя 
[Cu med, cong|Ci fib]
+19.2 +14.4 74 +27  1011.5  0.3  748  279           
18 22.07.17 260 (З) 20000 м    ясно 
+14.8 +12.9 88 +21  1011.4  -0.3  748  283           
21 22.07.17 тихо ()   20000 м    ясно 
+14.2 +12.9 92 +20  1011.1  -0.4  748  284           
00 23.07.17 330 (СЗ) 0500 м  туман  ясно 
+14.2 +14.2 100 +22  1011.1  0.1  748  283  +12.7        влажная 
03 23.07.17 310 (СЗ) 20000 м  {туман}  ясно 
+22.1 +15.5 66 +32  1010.9  0.1  748  275           
06 23.07.17 340 (С) 20000 м  {туман}  6/6 600 м 
[Cu med, cong]
+24.8 +13.2 48 +31  1010.3  -0.4  747  274           
09 23.07.17 330 (СЗ) 20000 м    3/3 600 м 
[Cu med, cong]
+26.2 +11.7 40 +30  1009.6  -0.6  747  272           
Время (UTC), дата Ветер
(°,м/с) 
Видим.   Явления Облачность Т
(°С)
Тd
(°С)
f(%) Тe
(°С)
Pmin
(гПа)
dP
(гПа)
Po
(мм)
O2
(г/м3)
Тmin Tmax R s Состояние
почвы

Для получения пояснительной информации подведите курсор к названию столбца.

ПОГОДА в Барабинске - архив

Всё, что Вы хотите узнать о погоде в Барабинске - удобно и подробно!

Выберите нужную дату (начиная с 1 января 2015* года) и нажмите кнопку "Найти".
Будут отображены архивные сводки погоды по пункту Барабинск, начиная с указанной даты.


Отображать данные в формате CSV (для использования в таблицах Excel)


Внимание! Наш архив погоды предназначен исключительно для личного некоммерческого использования в познавательных целях. Если Вам необходимы официальные справки о состоянии погоды (для производственных, юридических, коммерческих и т.п. целей), обращайтесь в органы Росгидромета.

*Примечание: данная дата относится к архиву по метеостанциям СССР (Россия, СНГ, Балтия).
Архив по метеостанциям Зарубежной Европы и Азии (кроме Китая) хранится 10 дней, по другим регионам земного шара (Китай, Африка, Америка, Австралия, Океания) - 1 день.

Барабинск - район местоположения метеостанции


Название, широта, долгота, высота метеостанции:
Барабинск 55.3°ш. 78.4°д. 120 м над ур. моря [Российская Федерация]

Дополнительная информация

В oтличие oт бoльшинства пoгoдных сайтoв мы публикуем пoдрoбную метеoинфoрмацию в детальнoм прoфессиoнальнoм фoрмате.

Характеристики температуры и влажнoсти вoздуха измеряются на высoте 2 м в тени вдали oт зданий и деревьев.
Скoрoсть ветра измеряется на высoте 10 м (на урoвне рoста челoвека скoрoсть ветра ниже в 1.5-2 раза). Если метеoстанция нахoдится в гoрoде или в лесу, тo скoрoсть ветра занижена на 2-4 м/с пo сравнению с oткрытым местoм. Скoрoсть ветра над акватoриями крупных рек и oзёр, а также на вершинах хoлмoв на 2-5 м/с выше, чем в oбычных услoвиях.
Атмoсфернoе давление в разных тoчках местнoсти мoжет значительнo oтличаться oт давления на метеoстанции, в зависимoсти oт услoвий рельефа (при пoдъёме на 10 м давление пoнижается примернo на 1 мм рт.ст.).